GFSNE_925_spd_246.txt.gz
Wind_Speed
21 25 27 27 26 18 16 14 9 2 4 8 8 8 12 16 15 16 16 15 13 13 16 20 23 25 26 23 23 22 22 26 30 33 33 33 33 39
26 31 27 25 21 20 18 15 17 15 5 6 10 14 13 13 16 14 13 11 12 15 19 23 25 26 28 28 26 25 28 28 34 32 33 35 37 41
30 28 28 23 23 19 16 18 20 18 9 9 11 11 12 13 10 10 13 12 13 17 23 28 30 30 31 27 28 24 25 33 38 19 30 41 31 31
30 31 27 22 19 17 19 19 14 16 15 11 10 10 12 10 9 13 11 12 19 23 26 26 29 30 27 26 25 26 23 25 26 24 3 32 39 45
35 32 27 21 21 18 17 15 17 17 15 9 9 12 11 10 9 10 15 19 25 24 23 24 27 27 27 24 24 23 20 19 27 25 27 23 30 40
32 30 23 21 20 19 19 18 16 13 12 10 9 12 10 8 9 11 15 19 25 27 25 22 26 25 19 21 23 20 14 18 21 30 39 38 43 52
26 24 22 21 19 19 18 17 14 10 10 12 9 8 7 8 8 5 11 17 25 20 22 22 21 19 18 18 17 13 13 22 21 32 48 52 52 51
31 25 19 17 16 14 14 13 10 12 15 12 11 9 15 10 10 8 11 6 3 10 21 23 19 17 16 13 11 12 16 25 29 49 49 49 52 53
24 19 17 17 15 14 15 13 12 11 14 16 15 15 17 12 8 9 7 2 7 16 17 11 15 11 7 10 9 14 23 31 45 54 60 60 57 54
18 15 15 16 14 12 11 10 9 11 12 14 15 16 14 10 8 10 7 5 7 9 9 5 9 11 13 2 7 16 32 49 53 46 48 48 51 51
10 10 10 9 11 12 10 8 7 8 8 9 10 13 13 9 9 9 9 4 3 3 5 3 3 8 19 18 11 36 46 46 41 42 44 47 45 40
3 4 6 7 9 8 8 8 7 8 6 9 10 11 9 9 9 11 9 8 5 2 8 3 6 3 5 15 21 30 44 50 45 50 47 48 50 47
10 9 5 8 7 6 7 8 9 9 8 9 11 11 9 9 8 9 10 9 11 7 7 7 7 6 5 6 17 24 35 39 49 50 49 49 46 43
12 9 7 8 9 7 8 8 8 10 12 11 13 12 10 9 7 6 7 8 11 14 9 12 6 9 10 11 8 24 30 37 43 41 44 46 42 40
8 6 4 5 6 8 8 8 10 12 14 16 15 13 11 7 6 6 5 7 8 10 10 16 7 15 18 13 14 22 28 25 39 45 44 41 43 38
9 6 6 4 5 6 8 10 12 14 17 19 16 11 11 11 8 9 9 9 10 8 10 10 13 25 18 22 28 24 32 14 33 42 41 37 36 34
7 5 5 4 5 6 7 7 11 12 15 17 14 15 16 14 13 11 11 12 7 11 11 11 16 20 22 31 22 25 26 34 36 40 39 34 28 27
6 3 2 4 6 5 5 7 8 11 14 16 15 16 18 18 16 13 14 11 12 14 17 18 19 22 21 17 21 28 26 32 35 36 36 32 23 23
5 4 4 4 5 4 5 7 9 11 15 15 16 18 18 18 16 16 15 13 12 15 17 20 21 19 6 3 8 20 28 33 31 28 32 24 24 26
8 5 4 5 4 3 4 6 6 8 13 15 16 19 19 19 18 16 17 15 15 14 15 18 19 19 13 8 8 12 25 36 34 26 26 21 22 23
8 5 4 5 4 3 3 4 6 7 11 15 17 19 21 21 17 18 18 18 18 14 14 14 18 19 16 18 13 15 21 29 32 35 32 26 20 19
6 4 4 4 4 3 3 4 4 6 9 12 15 17 20 22 18 18 20 19 18 17 14 17 18 19 19 11 14 19 20 23 24 27 30 26 23 12
8 8 7 4 2 4 4 5 5 6 7 9 11 15 19 21 21 21 21 22 20 19 20 20 21 20 14 18 20 20 19 24 23 21 20 23 14 9

GFSNE_925_spd_249.txt.gz
Wind_Speed
31 32 33 33 29 28 26 21 12 7 8 10 12 13 12 13 14 17 18 19 18 17 14 16 19 21 23 25 26 28 28 27 25 21 34 27 33 31
29 31 31 29 32 32 32 25 16 12 5 9 12 11 11 15 17 19 17 16 14 14 15 17 21 25 27 28 27 28 28 27 25 24 24 27 26 35
32 36 35 34 36 30 26 18 15 12 9 13 13 11 11 12 13 13 12 10 10 14 17 21 24 25 27 28 25 27 28 27 27 25 26 26 39 39
36 36 34 35 28 31 23 19 16 15 14 13 12 10 11 10 11 12 11 11 9 14 21 21 22 24 25 24 22 25 27 26 22 23 25 27 32 33
38 41 39 31 28 27 23 19 17 20 18 12 11 9 10 11 11 12 11 10 9 17 19 20 22 22 24 20 17 25 27 22 22 24 27 33 34 37
38 37 32 40 34 27 27 24 24 17 16 13 11 11 10 13 11 12 9 7 9 11 14 17 18 21 21 15 16 22 25 21 20 21 23 25 27 35
39 39 39 41 39 35 32 27 21 18 17 13 10 10 11 11 13 9 7 5 9 6 12 14 17 18 20 16 13 18 19 15 14 16 22 16 17 52
37 37 36 40 33 26 22 21 24 19 16 11 10 8 11 9 10 7 5 1 3 4 11 17 13 17 19 15 11 12 12 11 10 11 27 25 55 58
31 26 16 21 20 19 18 18 17 17 13 12 14 14 10 12 10 8 6 5 4 5 9 11 12 14 17 15 12 10 10 12 18 21 30 39 50 57
15 14 20 20 15 10 9 9 12 16 19 20 19 15 14 13 11 7 5 4 4 4 6 4 8 12 20 12 6 7 10 20 22 38 50 58 55 53
14 15 11 11 8 9 10 14 16 14 14 15 16 16 15 12 11 9 6 4 2 2 5 3 3 7 17 19 6 3 15 25 38 53 55 57 56 53
16 11 4 5 7 11 16 16 15 15 14 14 13 13 12 13 12 10 8 8 4 2 6 3 1 3 4 16 17 18 32 47 60 53 57 54 54 55
8 7 9 8 12 13 13 14 17 15 12 13 16 15 13 12 11 10 10 9 9 7 4 5 3 2 2 3 20 21 27 40 53 60 60 58 55 54
6 7 9 8 13 15 15 15 15 15 13 14 15 16 14 12 10 8 8 10 11 11 7 10 3 5 4 3 5 22 29 31 45 45 49 47 48 46
9 9 9 10 13 15 15 15 14 16 16 17 19 19 14 11 9 7 6 8 9 9 9 11 8 9 9 6 10 17 26 25 40 43 43 47 47 45
11 10 9 10 10 11 13 16 15 16 18 20 19 15 14 15 12 10 9 10 7 7 7 7 7 12 13 18 22 21 29 14 32 41 42 38 35 36
11 10 10 10 10 10 11 11 11 14 16 17 16 16 19 18 15 13 12 11 5 7 10 11 11 15 19 24 22 22 25 33 32 43 41 32 28 26
9 9 9 10 10 8 8 7 9 13 15 16 17 19 18 19 17 14 12 11 7 10 13 19 21 22 22 19 19 27 25 31 32 34 35 33 21 20
9 8 8 8 8 7 7 8 8 10 12 15 18 20 19 17 18 16 15 11 9 11 12 18 19 17 6 6 8 20 27 30 34 28 26 19 18 16
9 8 8 7 6 6 5 7 6 6 10 15 17 20 20 18 17 15 15 11 11 11 12 13 15 13 14 7 8 10 26 35 34 26 25 24 23 19
7 8 7 6 5 4 4 4 3 6 9 13 16 19 20 19 17 17 16 14 13 13 13 11 11 14 16 17 16 13 20 23 30 34 29 24 16 13
6 6 5 3 4 5 4 4 3 5 7 11 15 17 20 21 18 18 18 16 13 13 12 12 14 16 17 10 17 17 18 20 21 25 26 22 17 13
6 6 5 4 3 4 5 5 5 5 7 8 12 15 19 21 21 20 19 18 15 14 15 16 16 13 9 13 19 19 19 23 20 20 16 12 18 10

GFSNE_925_spd_252.txt.gz
Wind_Speed
31 34 34 32 31 26 26 25 13 7 11 16 21 19 19 18 19 19 17 18 20 19 19 19 20 20 21 22 24 26 28 29 28 29 25 21 22 30
32 31 32 31 27 26 24 26 21 19 8 24 22 18 17 17 17 19 18 20 20 21 20 20 20 23 24 26 27 28 29 30 30 31 27 24 26 24
32 31 33 31 29 28 26 24 24 25 13 19 18 17 18 17 16 16 17 18 17 19 20 20 21 26 28 27 28 29 30 30 31 31 28 25 26 23
30 30 29 29 28 26 26 26 27 26 25 20 19 18 18 17 17 17 16 17 19 17 19 20 21 24 26 27 29 30 31 31 31 30 28 27 25 26
32 32 33 32 30 29 30 30 29 27 25 21 17 16 16 14 15 15 16 17 17 17 19 19 20 22 22 24 24 21 25 26 30 29 29 28 26 27
39 38 35 33 35 34 32 31 30 26 23 21 16 12 13 13 12 14 16 17 16 14 15 17 16 17 20 20 20 20 24 25 27 26 28 28 27 29
35 36 37 37 39 38 34 34 32 28 24 20 15 9 11 9 13 14 15 14 14 14 14 14 14 16 17 19 16 17 20 21 21 23 24 26 27 29
28 31 34 35 38 40 38 35 30 26 17 14 11 11 14 12 12 16 14 12 6 8 11 15 13 15 14 16 20 19 18 15 15 16 20 18 28 34
28 24 20 25 27 26 19 11 11 9 11 12 12 13 10 12 13 15 12 12 13 9 9 15 11 13 10 20 20 15 13 10 8 8 12 14 12 25
21 20 20 16 17 23 23 21 15 12 11 12 13 12 13 13 17 12 13 10 8 9 6 7 8 12 13 19 14 8 9 7 11 13 17 38 41 56
2 6 13 14 16 18 19 17 13 10 13 17 18 20 13 15 14 14 11 8 5 6 8 6 6 8 9 17 12 4 3 11 30 22 48 58 53 53
17 16 13 11 7 2 4 7 11 14 17 16 14 15 13 14 16 17 11 11 8 5 8 7 5 4 3 12 12 7 10 22 23 39 35 48 58 55
7 5 3 2 3 4 5 7 10 12 13 15 16 15 13 12 15 16 11 8 7 10 5 5 4 2 1 2 18 15 21 28 39 50 57 53 45 46
2 1 3 4 5 6 7 9 11 12 13 15 15 15 16 17 15 13 11 10 10 10 5 7 5 4 2 3 4 19 20 21 27 41 51 50 50 50
7 6 7 7 7 8 10 11 12 14 14 14 14 16 21 18 15 13 10 8 9 12 11 12 7 4 5 4 7 13 19 19 23 40 49 47 50 50
8 8 9 9 8 10 11 14 14 14 16 15 13 16 15 14 16 14 10 9 7 6 8 8 8 5 4 11 16 16 21 10 23 34 45 43 41 38
10 11 10 10 10 10 10 11 12 15 15 16 15 15 16 17 14 12 10 12 5 6 6 6 7 8 7 17 14 13 24 30 33 40 41 35 30 30
8 8 8 9 9 9 9 9 9 12 14 14 15 17 19 18 15 12 11 11 8 10 9 14 18 18 16 13 18 21 23 28 30 33 35 34 27 24
6 7 8 8 7 8 8 8 8 8 11 12 15 18 19 17 16 13 12 10 9 12 13 16 16 16 7 7 9 19 26 28 32 29 28 25 25 20
8 8 8 7 8 8 7 6 7 7 8 11 14 17 19 19 16 14 14 11 11 11 12 14 14 11 12 10 7 12 26 34 32 28 29 29 25 22
9 8 8 7 7 7 5 6 7 7 8 10 13 17 19 19 16 16 15 13 12 11 12 11 10 13 17 21 18 16 21 21 28 36 33 32 24 20
8 7 6 5 5 5 5 6 6 6 6 8 12 16 19 19 17 17 16 14 12 11 11 14 15 16 16 16 20 19 20 23 20 30 23 16 18 12
7 6 5 4 3 4 3 4 5 5 5 6 10 14 18 19 18 18 17 14 11 13 14 16 14 12 11 18 24 22 25 29 27 21 16 18 15 12

GFSNE_925_spd_255.txt.gz
Wind_Speed
31 30 29 29 31 32 29 24 15 5 9 16 18 26 30 28 29 24 19 20 22 22 21 22 23 22 20 20 20 21 24 26 27 29 30 31 30 28
29 28 29 27 27 28 26 26 24 20 6 17 21 19 27 26 23 23 19 20 20 20 20 23 23 21 19 21 23 25 27 29 29 32 33 33 31 28
29 29 30 27 27 28 28 25 24 25 12 19 18 23 22 23 18 17 19 17 19 22 23 21 20 20 20 23 26 28 30 31 33 36 36 35 31 29
28 27 28 22 28 30 28 29 28 27 24 12 22 18 25 23 21 18 19 18 17 19 20 19 17 19 22 24 26 29 32 34 35 37 37 35 32 29
23 24 27 25 26 30 29 26 27 28 28 23 21 23 20 21 17 16 17 16 16 18 15 19 23 19 19 24 25 26 29 31 33 34 33 33 33 31
31 31 31 33 31 33 29 29 28 28 28 26 23 17 22 21 18 15 16 16 15 16 17 20 18 18 21 20 21 24 27 28 32 33 33 33 32 31
30 32 33 36 33 36 32 31 32 31 29 29 21 7 14 16 17 13 15 14 15 18 16 17 15 15 13 17 19 18 24 29 32 32 34 35 32 32
27 29 31 33 34 37 39 35 30 28 26 18 10 12 9 13 15 13 14 12 4 16 16 14 14 17 14 16 21 25 31 29 27 27 29 33 32 33
22 21 22 23 24 29 35 37 38 30 32 30 24 22 17 19 17 20 19 20 14 9 8 12 11 12 14 18 20 24 24 19 20 21 25 28 33 36
15 14 12 10 9 11 14 12 8 9 13 17 15 15 17 18 22 21 21 20 11 9 5 4 6 11 12 14 19 22 16 13 17 11 12 23 34 39
20 18 14 15 14 13 9 11 11 9 6 7 2 7 9 11 15 19 19 13 3 6 9 5 5 8 9 10 17 15 10 8 11 18 15 21 13 11
11 11 10 8 6 7 6 5 5 3 4 5 7 9 10 12 12 12 10 9 5 5 11 7 3 2 3 6 13 10 6 8 11 29 37 39 40 48
13 12 12 12 10 9 6 5 4 7 6 5 7 7 7 9 11 14 11 12 11 6 8 8 3 1 2 3 9 7 6 19 22 29 39 38 34 42
12 11 11 12 11 11 9 7 6 5 5 5 8 9 9 10 12 12 12 8 9 7 4 6 3 2 3 2 2 6 9 14 11 31 38 39 40 39
14 12 9 11 11 11 9 9 9 8 9 7 8 10 12 12 11 9 10 11 10 11 10 11 7 4 4 6 5 3 7 12 18 22 40 41 43 47
16 11 11 12 12 13 12 10 10 12 11 12 12 11 11 11 12 15 13 8 6 6 7 8 9 5 4 9 14 9 14 8 16 20 33 39 36 40
15 11 12 11 10 12 10 9 10 10 12 12 10 10 11 11 14 15 11 10 5 5 4 5 6 7 6 15 13 11 18 21 23 26 36 35 30 33
9 8 10 10 10 10 10 9 11 10 12 11 12 13 13 15 15 14 11 10 8 7 7 10 16 14 13 15 16 18 21 22 24 25 28 36 31 32
9 11 9 10 10 10 9 9 8 8 9 9 11 12 13 16 17 15 11 10 7 9 9 13 13 9 3 5 7 17 19 26 32 30 28 30 30 31
11 12 12 11 10 9 9 8 7 6 6 8 9 11 14 17 16 14 12 10 8 9 9 12 10 9 7 6 7 11 21 24 29 31 34 34 33 33
14 13 12 11 9 8 7 6 7 7 6 7 8 10 14 17 15 15 12 10 9 8 9 9 10 7 18 20 15 15 17 19 29 39 34 32 24 18
16 14 11 8 7 7 6 6 7 7 7 6 6 9 12 16 16 15 14 13 9 9 11 11 15 18 18 18 19 18 21 24 27 34 24 22 18 12
17 12 9 7 7 7 6 6 6 6 6 4 5 7 10 15 15 14 14 13 10 13 17 16 14 14 12 19 25 22 26 28 29 24 22 16 8 16